GW5243 Weather Reports


time (UTC)temp
C
wind
direction
speed
KPH
gust
KPH
rain 1hr
cm
rain 24hr
cm
rain mn
cm
humidity
%
barometer
mb
20260510193026 17 229 4.8 12.9 0.00 0.56 0.25 65 1011.1
20260510191527 17 38 6.4 19.3 0.00 0.61 0.25 70 1011.1
20260510190016 17 141 8.0 20.9 0.00 0.66 0.25 68 1011.1
20260510184517 17 292 6.4 16.1 0.00 0.69 0.25 73 1011.1
20260510183025 16 241 3.2 11.3 0.00 0.71 0.25 77 1011.2
20260510181557 15 188 8.0 14.5 0.05 0.76 0.25 81 1011.2
20260510180037 15 279 1.6 11.3 0.05 0.81 0.25 84 1011.2
20260510174515 14 346 3.2 8.0 0.05 0.89 0.25 88 1011.4
20260510173020 13 322 3.2 6.4 0.23 0.97 0.25 86 1011.4
20260510171526 14 59 1.6 8.0 0.18 0.94 0.20 86 1011.3
20260510170026 14 9 0.0 4.8 0.18 0.99 0.20 84 1011.2
20260510164517 14 5 1.6 4.8 0.18 1.02 0.20 83 1011.2
20260510163021 15 268 3.2 4.8 0.00 0.89 0.03 76 1011.1
20260510161522 15 113 0.0 6.4 0.00 0.91 0.03 73 1011.2
20260510160010 15 117 1.6 8.0 0.00 0.99 0.03 74 1011.1
20260510154512 15 169 0.0 9.7 0.00 1.04 0.03 75 1011.0
20260510153015 15 318 1.6 12.9 0.00 1.07 0.03 75 1011.0
20260510151504 15 165 4.8 12.9 0.00 1.09 0.03 77 1010.8
20260510150006 15 229 4.8 12.9 0.00 1.14 0.03 80 1010.9
20260510144510 13 243 3.2 11.3 0.00 1.14 0.03 80 1011.0
20260510143015 14 255 1.6 8.0 0.00 1.17 0.03 83 1011.0
20260510141525 13 276 3.2 11.3 0.00 1.17 0.03 82 1011.1
20260510140004 12 240 3.2 9.7 0.00 1.17 0.03 86 1011.1
20260510134508 12 249 3.2 9.7 0.00 1.17 0.03 87 1011.4
20260510133014 12 263 4.8 9.7 0.00 1.17 0.03 89 1011.3
20260510131517 11 239 0.0 6.4 0.00 1.17 0.03 92 1011.1
20260510130023 10 208 1.6 6.4 0.00 1.17 0.03 94 1011.1
20260510124508 10 227 0.0 3.2 0.00 1.17 0.03 96 1011.2
20260510123014 10 165 0.0 4.8 0.00 1.17 0.03 97 1011.2
20260510121520 9 303 1.6 6.4 0.00 1.17 0.03 97 1011.3
20260510120020 8 169 0.0 3.2 0.00 1.17 0.03 97 1011.3
20260510114529 8 18 0.0 3.2 0.00 1.17 0.03 97 1010.9
20260510113009 8 18 0.0 0.0 0.00 1.17 0.03 97 1011.1
20260510111516 8 18 0.0 3.2 0.00 1.17 0.03 97 1011.1
20260510110020 7 18 0.0 1.6 0.00 1.17 0.03 97 1010.8
20260510104524 7 24 0.0 3.2 0.00 1.17 0.03 97 1010.6
20260510103029 -17 0.0 0.0 0.00 1.17 0.03 1010.3
20260510101528 -17 0.0 0.0 0.00 1.17 0.03 1009.8
20260510100035 -17 0.0 0.0 0.00 1.17 0.03 1009.6
20260510094532 -17 0.0 0.0 0.00 1.17 0.03 1009.6
20260510093040 -17 0.0 0.0 0.00 1.17 0.03 1009.3
20260510091537 -17 0.0 0.0 0.00 1.17 0.03 1009.6
20260510090034 -17 0.0 0.0 0.00 1.17 0.03 1009.7
20260510084532 -17 0.0 0.0 0.00 1.17 0.03 1009.9
20260510083030 -17 0.0 0.0 0.00 1.17 0.03 1009.8
20260510081529 -17 0.0 0.0 0.00 1.17 0.03 1010.0
20260510080031 -17 0.0 0.0 0.00 1.17 0.03 1010.0
20260510074534 -17 0.0 0.0 0.00 1.17 0.03 1010.1
20260510073028 -17 0.0 0.0 0.00 1.17 0.03 1010.0
20260510071537 -17 0.0 0.0 0.00 1.17 0.03 1010.0
20260510070028 -17 0.0 0.0 0.00 1.17 0.03 1009.9
20260510064507 6 273 0.0 3.2 0.03 1.17 0.03 1010.2
20260510063005 6 117 0.0 3.2 0.03 1.17 0.03 96 1010.3
20260510061507 6 49 0.0 3.2 0.03 1.17 0.03 96 1010.4
20260510060006 6 71 0.0 3.2 0.03 1.17 0.03 96 1010.2
20260510054506 6 16 0.0 3.2 0.00 1.14 0.00 96 1010.4
20260510053009 6 32 0.0 3.2 0.00 1.14 0.00 96 1010.2
20260510051506 6 49 1.6 3.2 0.00 1.14 0.00 96 1010.2
20260510050009 6 314 0.0 3.2 0.00 1.14 0.00 96 1010.5
20260510044508 6 360 0.0 3.2 0.00 1.14 0.00 96 1010.6
20260510043013 6 5 0.0 3.2 0.00 1.14 0.00 96 1010.7
20260510041504 6 352 0.0 3.2 0.00 1.14 0.00 96 1010.7
20260510040006 6 352 0.0 3.2 0.00 1.14 0.00 96 1010.6
20260510034508 6 360 0.0 3.2 0.00 1.14 1.14 96 1010.7
20260510033009 6 346 0.0 3.2 0.00 1.14 1.14 96 1010.7
20260510031515 6 24 0.0 3.2 0.00 1.14 1.14 96 1010.7
20260510030012 6 77 0.0 3.2 0.00 1.14 1.14 96 1010.9
20260510024517 6 86 0.0 3.2 0.00 1.14 1.14 96 1011.1
20260510023010 6 66 0.0 3.2 0.00 1.14 1.14 96 1011.2
20260510021509 6 71 0.0 3.2 0.00 1.14 1.14 96 1011.1
20260510020008 6 89 0.0 3.2 0.00 1.14 1.14 96 1011.2
20260510014509 6 57 0.0 4.8 0.00 1.14 1.14 96 1011.1
20260510013010 6 64 0.0 3.2 0.00 1.14 1.14 96 1011.1
20260510011511 6 64 1.6 4.8 0.00 1.14 1.14 95 1011.1
20260510010010 6 82 0.0 4.8 0.00 1.14 1.14 95 1011.2
20260510004510 6 9 0.0 3.2 0.00 1.14 1.14 95 1011.0
20260510003038 6 72 0.0 3.2 0.00 1.14 1.14 95 1010.9
20260510001515 6 105 0.0 3.2 0.00 1.14 1.14 95 1010.8
20260510000015 6 114 0.0 6.4 0.00 1.14 1.14 94 1010.4
20260509234525 6 59 1.6 4.8 0.00 1.14 1.14 94 1010.3
20260509233017 6 125 1.6 4.8 0.00 1.14 1.14 94 1010.3
20260509231528 6 48 1.6 6.4 0.00 1.14 1.14 94 1010.3
20260509230021 6 84 0.0 3.2 0.00 1.14 1.14 94 1010.3
20260509224518 6 51 1.6 6.4 0.00 1.14 1.14 94 1010.4
20260509223016 6 128 0.0 3.2 0.03 1.14 1.14 94 1010.4
20260509221513 6 74 1.6 4.8 0.05 1.14 1.14 94 1010.5
20260509220015 6 94 0.0 3.2 0.05 1.14 1.14 94 1010.5
20260509214518 6 52 0.0 4.8 0.08 1.14 1.14 94 1010.7
20260509213019 7 37 1.6 3.2 0.08 1.12 1.12 94 1010.8
20260509211516 7 51 0.0 3.2 0.10 1.09 1.09 94 1010.7
20260509210022 7 58 0.0 3.2 0.15 1.09 1.09 94 1010.7
20260509204521 7 57 0.0 3.2 0.15 1.07 1.07 94 1010.8
20260509203023 7 51 0.0 3.2 0.20 1.04 1.04 94 1010.8
20260509201521 6 50 0.0 3.2 0.20 0.99 0.99 94 1011.0
20260509200023 7 55 0.0 3.2 0.20 0.94 0.94 93 1011.2
20260509194523 7 98 1.6 6.4 0.20 0.91 0.91 94 1011.1